Location: Ernemont
(49.5884°N, 1.8074°E)
Time: 04:33:20
(UTC+00:00)

Daily predictions for brighter satellites

Satellite Brightness Start Highest point End
(mag) Time Altitude Azimuth Time Altitude Azimuth Time Altitude Azimuth
SL-16 R/B 4.4 03:19:10 21° ENE 03:19:10 21° ENE 03:22:24 10° E
Cosmos 2082 Rocket 4.2 03:23:08 24° ENE 03:23:08 24° ENE 03:26:09 10° NE
USA 234 4.3 03:24:34 10° ENE 03:28:36 39° NE 03:28:36 39° NE
NOSS 3-1 (C) 4.1 03:52:29 68° NE 03:52:31 68° NE 04:01:03 10° SE
COSMOS 2455 3.6 04:07:01 44° SE 04:07:01 44° SE 04:11:01 10° SE
Cosmos 2360 Rocket 3.9 04:09:26 23° NNE 04:11:02 27° NE 04:15:44 10° E
Cosmos 2333 Rocket 3.5 04:11:00 33° NNE 04:12:14 36° NE 04:17:31 10° ESE
ATLAS 3B R/B 4.2 04:14:24 28° NNW 04:16:05 30° N 04:22:47 10° ENE
Cosmos 1898 Rocket 4.4 04:29:27 40° SSE 04:29:27 40° SSE 04:32:47 10° SSE
Cosmos 2219 Rocket 4.1 04:25:49 18° N 04:28:25 24° NE 04:32:55 10° E
COSMO-SKYMED 1 4.0 04:28:21 10° SE 04:32:02 32° ENE 04:32:40 31° NE
Cosmos 2322 Rocket 3.4 04:32:25 27° N 04:34:44 39° NE 04:40:01 10° ESE
Cosmos 1937 Rocket 3.4 04:49:26 69° S 04:49:26 69° S 04:54:00 10° SSE
Cosmos 858 Rocket 4.5 04:49:23 64° N 04:50:08 80° ENE 04:55:20 10° SSE
USA 59 Rocket 1.7 04:54:18 23° S 04:54:18 23° S 04:56:34 10° SSE
Cosmos 1833 Rocket 4.4 04:55:09 18° N 04:55:09 18° N 04:57:14 10° NNE
Cosmos 2237 4.1 04:53:25 64° SW 04:53:25 64° SW 04:58:52 10° SSE
Aureole 1 Rocket 4.4 04:53:29 51° WSW 04:53:34 51° WSW 05:00:42 10° S
Meteor 2-3 Rocket 4.1 04:48:30 10° S 04:54:09 65° E 04:59:47 10° NNE
Cosmos 2058 Rocket 4.0 04:54:41 21° N 04:57:21 47° ENE 05:01:37 10° SSE
COSMOS 2406 3.2 04:55:16 18° SSW 04:59:38 79° ESE 05:05:20 10° NNE
SKYMED 2 3.5 04:55:56 10° SSE 05:00:14 88° SE 05:00:14 88° SE
NOSS 3-1 (A) 4.0 04:57:15 36° NW 05:00:36 79° NE 05:09:19 10° SE
SL-16 R/B 2.1 05:01:03 45° NNW 05:02:53 90° NNE 05:08:34 10° SSE
Cosmos 2082 Rocket 2.1 05:05:01 57° WNW 05:05:13 57° WNW 05:10:46 10° NNE
CZ-4 R/B 4.0 05:02:37 10° NNE 05:07:16 70° ESE 05:11:51 10° S
ATLAS 5 CENTAUR R/B 3.7 05:10:38 10° NNE 05:10:38 10° NNE 05:10:41 10° NNE
SeaSat 1 4.0 05:05:17 10° NNE 05:07:30 22° N 05:07:30 22° N
BREEZE-M DEB (TANK) 3.7 05:12:02 48° ESE 05:12:02 48° ESE 05:13:50 10° E
Okean 1 3.9 05:11:24 31° NNE 05:12:42 47° ENE 05:16:09 10° SSE
USA 234 3.7 05:07:18 10° ENE 05:13:31 47° N 05:15:57 33° NW
Helios 1A Rocket 2.6 05:12:55 10° SSE 05:15:55 68° SE 05:15:55 68° SE
CZ-2C R/B 4.3 05:12:00 10° N 05:13:16 17° N 05:13:16 17° N
NOAA 12 4.0 05:12:17 10° NNE 05:17:38 87° ESE 05:22:53 10° SSW
Cosmos 2285 Rocket 4.4 05:17:03 13° NNW 05:22:50 63° ENE 05:29:11 10° SE
BREEZE-M DEB (TANK) 2.5 05:23:26 77° ESE 05:23:26 77° ESE 05:27:22 10° E
BREEZE-M DEB (TANK) 2.7 05:24:36 43° SSW 05:25:01 46° S 05:30:19 10° ESE
Cosmos 2278 3.6 05:24:16 32° NW 05:26:57 71° WSW 05:32:33 10° SSE
SL-4 R/B 1.3 05:28:33 82° NE 05:28:33 82° NE 05:31:41 10° ESE
FengYun 1-2 T 4.3 05:24:34 10° N 05:30:03 52° WNW 05:35:30 10° SW
NOSS 8 (A) 4.2 05:33:11 60° NNE 05:33:23 62° NE 05:36:31 10° SE
Cosmos 2026 Rocket 3.8 05:28:03 10° SSW 05:34:05 77° W 05:40:15 10° N
Cosmos 2221 4.1 05:31:13 10° N 05:34:58 32° ENE 05:38:42 10° SE
Cosmos 1726 Rocket 4.3 05:38:11 31° WSW 05:38:11 31° WSW 05:41:04 10° SSW
Cosmos 841 Rocket 3.8 05:40:31 26° WSW 05:42:55 41° WNW 05:47:55 10° NNE
Cosmos 405 Rocket 3.4 05:39:50 10° S 05:42:57 45° E 05:46:07 10° NNE
COSMOS 2455 4.1 05:50:11 20° WSW 05:50:11 20° WSW 05:54:20 10° SSW
Cosmos 2360 Rocket 2.1 05:51:12 17° NW 05:55:33 71° WSW 06:01:08 10° SSE
Cosmos 1626 Rocket 3.7 05:51:50 10° S 05:56:15 78° E 06:00:39 10° NNE
Cosmos 2333 Rocket 2.5 05:53:03 21° NW 05:56:44 49° WSW 06:02:13 10° S
Cosmos 1553 Rocket 4.0 05:51:09 10° N 05:57:33 83° W 06:03:58 10° S
SMAP 4.1 05:55:32 10° NNE 06:00:03 48° E 06:04:33 10° S
Cosmos 1892 Rocket 4.1 05:57:03 10° SW 06:01:02 34° WNW 06:05:05 10° N
Cosmos 1092 Rocket 4.0 05:54:53 10° SSW 06:01:03 58° WNW 06:07:12 10° N
Meteor 2-2 Rocket 4.4 05:57:45 10° NNW 06:03:14 50° W 06:08:46 10° SSW
Cosmos-2242 3.3 06:00:27 17° NNW 06:03:15 40° W 06:07:11 10° SSW
Cosmos 2237 Rocket 4.1 06:01:30 10° N 06:05:48 22° NE 06:10:06 10° E
COSMO-SKYMED 1 3.3 06:03:48 10° SSW 06:07:21 28° W 06:08:59 21° WNW
Cosmos 1125 Rocket 3.9 06:02:15 10° NNW 06:07:31 65° ENE 06:12:42 10° SE
ATLAS 3B R/B 3.6 06:01:38 13° NW 06:08:41 53° NE 06:16:05 10° ESE
IRS-1D 4.1 06:08:20 10° N 06:12:42 31° WNW 06:17:08 10° WSW
Cosmos 2219 Rocket 2.2 06:07:31 11° NNW 06:13:04 84° WSW 06:18:42 10° SSE
Cosmos 2322 Rocket 2.6 06:14:15 14° NW 06:18:50 44° WSW 06:24:10 10° S
BREEZE-M DEB (TANK) 4.2 05:59:48 10° W 06:20:04 90° S 06:24:42 10° E
Meteor 2-6 Rocket 4.4 06:19:31 10° NNW 06:25:22 58° W 06:31:10 10° S
Okean 1-7 Rocket 4.3 06:21:37 10° S 06:26:03 60° E 06:30:27 10° NNE
Cosmos 1812 Rocket 3.4 06:22:55 10° NNW 06:27:14 78° W 06:31:34 10° S
IGS 5A 3.5 06:23:39 10° N 06:27:32 49° WNW 06:31:23 10° SW
Cosmos 2322 4.2 06:22:31 10° NNW 06:28:08 59° NE 06:33:43 10° SE
Cosmos 1484 Rocket 3.0 06:25:37 10° N 06:28:44 34° WNW 06:31:49 10° SW
SJ-12 4.1 06:28:33 10° NNE 06:32:22 68° ESE 06:36:09 10° S
Cosmos 2266 Rocket 4.2 06:26:03 10° S 06:32:26 84° E 06:38:47 10° N
Cosmos 1437 Rocket 2.3 06:29:56 10° NNW 06:33:24 82° W 06:36:51 10° S
Cosmos 192 4.3 06:28:42 10° NNW 06:33:36 68° WSW 06:38:27 10° SSE
Cosmos 1602 Rocket 3.5 06:30:18 10° SSW 06:34:44 80° W 06:39:13 10° N
Cosmos 2058 Rocket 4.4 06:31:52 11° NW 06:34:52 20° W 06:38:05 10° SW
Cosmos 1417 Rocket 4.4 06:29:18 10° NNW 06:35:27 77° W 06:41:35 10° S
ATLAS 2AS CENTAUR R/B 3.2 06:28:38 10° SSW 06:35:36 66° SE 06:42:25 10° NE
SL-08 ROCKET BODY 4.4 06:33:27 10° SSW 06:39:11 57° WNW 06:44:57 10° N
Cosmos 1743 2.5 06:37:08 10° SSW 06:40:16 47° WNW 06:43:26 10° N
ARIANE 5 R/B 2.8 06:35:51 10° NNE 06:41:05 78° ESE 06:46:19 10° SSW
COSMOS 2406 4.2 06:39:58 10° W 06:44:34 25° NW 06:49:11 10° NNE
SL-16 R/B 3.7 06:42:55 10° WNW 06:46:10 16° W 06:49:32 10° SW
AQUARIUS 4.3 06:43:59 10° NNE 06:48:26 83° ESE 06:52:50 10° SSW
COSMOS 2428 3.0 06:44:45 10° NNW 06:50:29 74° ENE 06:56:10 10° SE
Cosmos 2082 Rocket 3.7 06:47:09 10° WNW 06:50:33 16° NNW 06:53:58 10° N
ATLAS 5 CENTAUR R/B 3.5 06:51:58 10° N 06:52:34 10° N 06:53:10 10° NNE
SPOT 1/Viking Rocket 4.4 06:47:47 10° NNE 06:52:54 55° E 06:57:56 10° S
USA 234 3.6 06:49:33 10° E 06:56:00 62° NNE 07:02:27 10° WNW
Cosmos 1953 Rocket 4.4 06:53:50 10° S 06:58:02 54° E 07:02:19 10° NNE
MOS 1 Rocket 3.6 06:53:33 10° N 06:58:56 79° WNW 07:04:13 10° SSW
SJ-6F 4.4 06:58:07 10° NNE 07:02:13 80° WNW 07:06:17 10° SSW
ISS -0.1 07:01:48 10° SSE 07:03:10 12° SE 07:04:33 10° ESE
Meteor 1-27 Rocket 3.8 06:58:40 10° NNW 07:04:34 80° W 07:10:17 10° S
SAR-Lupe-4 3.7 07:01:25 10° N 07:04:51 49° WNW 07:08:18 10° SW
